This demonstration page uses our WeatherBlox Daily Observations layout. Learn more.

Left ArrowRight Arrow

Hourly Observations for July 13, 2018

Temp ( °F °C ) Dew Point ( °F °C ) Humidity (%) Winds ( mph kmh ) Pressure ( in mb ) Visibility ( mi km ) Precip ( " mm )
12:17 am 00:17 Clear 64 18 64 18 100 100 N N/A 30.18 1022 10 16.0934 N/A
12:37 am 00:37 Clear 63 17 63 17 100 100 N N/A 30.18 1022 10 16.0934 N/A
12:56 am 00:56 Clear 61 16 61 16 100 100 N N/A 30.18 1022 10 16.0934 N/A
1:17 am 01:17 Clear 63 17 63 17 100 100 N N/A 30.18 1022 10 16.0934 N/A
1:36 am 01:36 Clear 61 16 61 16 100 100 N N/A 30.18 1022 10 16.0934 N/A
1:57 am 01:57 Clear 61 16 61 16 100 100 N N/A 30.18 1022 10 16.0934 N/A
2:16 am 02:16 Clear 63 17 63 17 100 100 N N/A 30.18 1022 10 16.0934 N/A
2:36 am 02:36 Clear 61 16 61 16 100 100 N N/A 30.18 1022 10 16.0934 N/A
2:57 am 02:57 Clear 59 15 59 15 100 100 N N/A 30.18 1022 10 16.0934 N/A
3:16 am 03:16 Clear 59 15 59 15 100 100 N N/A 30.18 1022 10 16.0934 N/A
3:37 am 03:37 Clear 61 16 61 16 100 100 N N/A 30.18 1022 10 16.0934 N/A
3:57 am 03:57 Clear 59 15 59 15 100 100 N N/A 30.18 1022 10 16.0934 N/A
4:16 am 04:16 Clear 59 15 59 15 100 100 N N/A 30.18 1022 10 16.0934 N/A
4:37 am 04:37 Clear 59 15 59 15 100 100 N N/A 30.15 1021 10 16.0934 N/A
4:56 am 04:56 Clear 57 14 57 14 100 100 N N/A 30.15 1021 10 16.0934 N/A
5:17 am 05:17 Clear 59 15 59 15 100 100 N N/A 30.15 1021 10 16.0934 N/A
5:36 am 05:36 Clear 59 15 59 15 100 100 N N/A 30.15 1021 10 16.0934 N/A
5:57 am 05:57 Clear 57 14 57 14 100 100 N N/A 30.15 1021 10 16.0934 N/A
6:17 am 06:17 Clear 57 14 57 14 100 100 N N/A 30.15 1021 10 16.0934 N/A
6:36 am 06:36 Sunny 57 14 57 14 100 100 N N/A 30.18 1022 10 16.0934 N/A
6:57 am 06:57 Sunny 57 14 57 14 100 100 N N/A 30.18 1022 10 16.0934 N/A
7:16 am 07:16 Sunny 61 16 61 16 100 100 N N/A 30.18 1022 10 16.0934 N/A
7:36 am 07:36 Sunny 61 16 61 16 100 100 N N/A 30.18 1022 10 16.0934 N/A
7:57 am 07:57 Sunny 64 18 63 17 94 94 N N/A 30.18 1022 10 16.0934 N/A
8:16 am 08:16 Sunny 66 19 64 18 94 94 N N/A 30.18 1022 10 16.0934 N/A
8:37 am 08:37 Sunny 70 21 66 19 88 88 SE 5 7 30.18 1022 10 16.0934 N/A
8:56 am 08:56 Sunny 72 22 66 19 83 83 SE 3 6 30.18 1022 10 16.0934 N/A
9:16 am 09:16 Sunny 73 23 66 19 78 78 S 3 6 30.15 1021 10 16.0934 N/A
9:37 am 09:37 Sunny 75 24 66 19 74 74 S 3 6 30.15 1021 10 16.0934 N/A
9:56 am 09:56 Sunny 77 25 68 20 74 74 S 5 7 30.15 1021 10 16.0934 N/A
10:17 am 10:17 Sunny 77 25 68 20 74 74 S 3 6 30.15 1021 10 16.0934 N/A
10:36 am 10:36 Sunny 79 26 66 19 65 65 WSW 5 7 30.15 1021 10 16.0934 N/A
10:56 am 10:56 Sunny 79 26 68 20 70 70 SSW 5 7 30.15 1021 10 16.0934 N/A
11:17 am 11:17 Sunny 81 27 66 19 62 62 SSW 6 9 30.15 1021 10 16.0934 N/A
11:36 am 11:36 Sunny 81 27 68 20 66 66 S 3 6 30.15 1021 10 16.0934 N/A
11:56 am 11:56 Sunny 81 27 66 19 62 62 N N/A 30.15 1021 10 16.0934 N/A
12:17 pm 12:17 Sunny 82 28 66 19 58 58 N N/A 30.15 1021 10 16.0934 N/A
12:36 pm 12:36 Sunny 82 28 66 19 58 58 N N/A 30.15 1021 10 16.0934 N/A
12:57 pm 12:57 Sunny 82 28 66 19 58 58 N N/A 30.15 1021 10 16.0934 N/A
1:16 pm 13:16 Sunny 84 29 66 19 55 55 N N/A 30.15 1021 10 16.0934 N/A
1:36 pm 13:36 Sunny 84 29 66 19 55 55 N N/A 30.12 1020 10 16.0934 N/A
1:57 pm 13:57 Sunny 84 29 66 19 55 55 N N/A 30.12 1020 10 16.0934 N/A
2:16 pm 14:16 Sunny 84 29 66 19 55 55 N N/A 30.12 1020 10 16.0934 N/A
2:37 pm 14:37 Sunny 86 30 66 19 52 52 N N/A 30.12 1020 10 16.0934 N/A
2:56 pm 14:56 Sunny 86 30 66 19 52 52 N N/A 30.12 1020 10 16.0934 N/A
3:17 pm 15:17 Sunny 86 30 68 20 55 55 ESE 5 7 30.12 1020 10 16.0934 N/A
3:36 pm 15:36 Sunny 86 30 68 20 55 55 ENE 3 6 30.12 1020 10 16.0934 N/A
3:56 pm 15:56 Sunny 86 30 68 20 55 55 ESE 5 7 30.12 1020 10 16.0934 N/A
4:16 pm 16:16 Sunny 86 30 68 20 55 55 E 6 9 30.12 1020 10 16.0934 N/A
4:36 pm 16:36 Sunny 86 30 68 20 55 55 ESE 5 7 30.09 1019 10 16.0934 N/A
4:56 pm 16:56 Sunny 86 30 68 20 55 55 ESE 3 6 30.09 1019 10 16.0934 N/A
5:16 pm 17:16 Sunny 86 30 68 20 55 55 ENE 3 6 30.09 1019 10 16.0934 N/A
5:37 pm 17:37 Sunny 88 31 68 20 52 52 NE 5 7 30.09 1019 10 16.0934 N/A
5:56 pm 17:56 Sunny 86 30 68 20 55 55 E 5 7 30.09 1019 10 16.0934 N/A
6:16 pm 18:16 Sunny 86 30 70 21 59 59 ESE 3 6 30.09 1019 10 16.0934 N/A
6:37 pm 18:37 Sunny 86 30 72 22 62 62 SE 6 9 30.06 1018 10 16.0934 N/A
6:56 pm 18:56 Sunny 86 30 70 21 59 59 SE 6 9 30.06 1018 10 16.0934 N/A
7:17 pm 19:17 Sunny 86 30 70 21 59 59 SSE 6 9 30.06 1018 10 16.0934 N/A
7:37 pm 19:37 Sunny 84 29 70 21 62 62 SSE 3 6 30.06 1018 10 16.0934 N/A
7:56 pm 19:56 Sunny 82 28 70 21 66 66 SSE 6 9 30.06 1018 10 16.0934 N/A
8:17 pm 20:17 Sunny 82 28 70 21 66 66 SSE 5 7 30.06 1018 10 16.0934 N/A
8:36 pm 20:36 Sunny 81 27 70 21 70 70 S 3 6 30.06 1018 10 16.0934 N/A
8:57 pm 20:57 Sunny 79 26 72 22 79 79 S 3 6 30.06 1018 10 16.0934 N/A
9:16 pm 21:16 Clear 77 25 70 21 79 79 SSE 5 7 30.06 1018 10 16.0934 N/A
9:36 pm 21:36 Clear 75 24 70 21 83 83 N N/A 30.09 1019 10 16.0934 N/A
9:57 pm 21:57 Clear 73 23 70 21 89 89 N N/A 30.09 1019 10 16.0934 N/A
10:16 pm 22:16 Clear 72 22 72 22 100 100 N N/A 30.09 1019 10 16.0934 N/A
10:37 pm 22:37 Clear 72 22 70 21 94 94 N N/A 30.09 1019 10 16.0934 N/A
10:56 pm 22:56 Clear 72 22 70 21 94 94 N N/A 30.09 1019 10 16.0934 N/A
11:17 pm 23:17 Clear 72 22 70 21 94 94 N N/A 30.09 1019 10 16.0934 N/A
11:37 pm 23:37 Clear 68 20 68 20 100 100 N N/A 30.12 1020 10 16.0934 N/A
11:56 pm 23:56 Clear 68 20 68 20 100 100 N N/A 30.12 1020 10 16.0934 N/A

Powered by AerisWeather